Regional Weather Roundup
Issued by NWS

Home | Current Version | Previous Version | Graphics & Text | Print | Product List | Glossary On
Versions: 1 2 3 4 5 6 7 8 9 10 11 12 13 14 15 16 17 18 19 20 21 22 23 24 25 26 27 28 29 30 31 32 33 34 35 36 37 38 39 40 41 42 43 44 45 46 47 48 49 50
000
ASUS44 KMEG 230200
RWRTN
TENNESSEE HOURLY STATE WEATHER ROUNDUP
NATIONAL WEATHER SERVICE MEMPHIS TN
800 PM CST WED FEB 22 2017

TNZ002-004-019-021-049-052-054-088>092-230300-
WEST TENNESSEE

CITY           SKY/WX    TMP DP  RH WIND       PRES   REMARKS
MEMPHIS INTL   PTCLDY    67  55  65 S9        29.81R
NWS MEMPHIS      N/A     64 N/A N/A MISG        N/A
JACKSON        CLEAR     62  57  83 SE3       29.82R
UNION CITY     CLEAR     63  63 100 CALM      29.80S
PARIS          MOCLDY    59  54  82 S5        29.83S
$$

TNZ008-025-027-028-033-062-065-066-230300-
NORTH MIDDLE TENNESSEE

CITY           SKY/WX    TMP DP  RH WIND       PRES   REMARKS
NASHVILLE      MOCLDY    62  56  80 S3        29.86R
CLARKSVILLE    CLEAR     62  53  72 S5        29.83S
SMYRNA         PTCLDY    60  57  89 CALM      29.87S
CROSSVILLE     CLEAR     55  53  93 CALM      29.92R
$$

TNZ061-075-076-078-094-096-097-230300-
SOUTH MIDDLE TENNESSEE

CITY           SKY/WX    TMP DP  RH WIND       PRES   REMARKS
TULLAHOMA      CLEAR     57  55  94 SE5       29.89S
WINCHESTER     CLEAR     54  54 100 CALM      29.89S
MCMINNVILLE    CLEAR     54  54 100 CALM      29.89S
COLUMBIA       CLEAR    N/A N/A N/A CALM      29.84S
SHELBYVILLE    CLEAR     63  57  82 SE6       29.87F
$$

TNZ017-018-042-046-047-230300-
NORTHEAST TENNESSEE

CITY           SKY/WX    TMP DP  RH WIND       PRES   REMARKS
TRI CITIES     FOG       53  52  96 CALM      29.92S VSB 1/4
$$

TNZ012-013-036-069-073-074-230300-
CENTRAL EAST TENNESSEE

CITY           SKY/WX    TMP DP  RH WIND       PRES   REMARKS
KNOXVILLE      MOCLDY    57  54  89 N5        29.89S
OAK RIDGE      CLOUDY    57  54  89 CALM      29.93R
GATLINBURG     MOCLDY    55  55 100 CALM      29.90S
$$

TNZ083-085-099-230300-
SOUTHEAST TENNESSEE

CITY           SKY/WX    TMP DP  RH WIND       PRES   REMARKS
CHATTANOOGA    PTCLDY    57  55  93 E3        29.90R
$$

SKY/WX REPORTED AS FAIR MEANS FEW OR NO CLOUDS BELOW
12 THOUSAND FEET.





USA.gov is the U.S. government's official web portal to all federal, state and local government web resources and services.